Temp
-5 -5 -7 -6 -5 -5 -6 -7 -7 -6 -6 -6 -6 -5 -5 -6 -6 -5 -5 -5 -6 -6 -6 -6 -7 -7 -7 -7 -7 -7 -7 -7 -7 -7 -7 -7 -7 -7 -7 -7 -6 -6 -6 -6 -6 -6 -6 -6 -6
-5 -6 -6 -6 -6 -5 -7 -7 -6 -5 -6 -7 -6 -6 -6 -5 -5 -5 -5 -5 -5 -6 -6 -6 -6 -7 -7 -7 -7 -7 -7 -7 -7 -7 -7 -8 -7 -7 -7 -7 -6 -6 -6 -6 -6 -6 -6 -6 -6
-5 -7 -6 -6 -6 -6 -6 -7 -4 -5 -5 -6 -7 -6 -6 -6 -6 -6 -5 -5 -5 -6 -6 -6 -6 -7 -7 -7 -7 -7 -7 -7 -7 -7 -7 -7 -7 -7 -7 -7 -7 -7 -6 -7 -6 -6 -6 -6 -6
-5 -7 -7 -5 -7 -6 -6 -7 -4 -4 -5 -5 -6 -8 -5 -7 -6 -6 -6 -5 -6 -6 -6 -6 -7 -7 -7 -8 -8 -8 -8 -8 -7 -7 -7 -7 -8 -7 -7 -7 -7 -7 -7 -7 -7 -6 -6 -6 -6
-5 -6 -6 -6 -6 -6 -7 -6 -6 -5 -7 -7 -4 -5 -5 -7 -7 -7 -6 -6 -6 -6 -6 -7 -7 -7 -8 -8 -8 -9 -8 -8 -8 -8 -8 -8 -8 -7 -7 -7 -7 -7 -7 -7 -7 -7 -6 -6 -6
-5 -5 -6 -6 -7 -6 -7 -8 -8 -7 -7 -7 -6 -7 -6 -8 -7 -7 -7 -7 -6 -7 -7 -7 -7 -8 -8 -8 -8 -8 -9 -8 -8 -8 -8 -8 -8 -8 -8 -7 -7 -7 -7 -7 -7 -7 -7 -7 -7
-5 -6 -6 -6 -6 -7 -6 -6 -6 -7 -6 -6 -8 -7 -7 -7 -8 -8 -7 -7 -7 -7 -7 -7 -7 -7 -8 -8 -8 -8 -9 -8 -9 -9 -9 -9 -8 -8 -8 -8 -7 -7 -7 -7 -7 -7 -7 -7 -7
-6 -5 -5 -6 -7 -7 -7 -7 -7 -8 -8 -8 -9 -7 -7 -8 -8 -7 -7 -7 -7 -7 -7 -7 -7 -8 -7 -7 -7 -8 -8 -8 -9 -9 -9 -9 -9 -8 -8 -8 -7 -8 -7 -7 -7 -7 -7 -7 -7
-6 -6 -6 -7 -6 -7 -7 -7 -8 -8 -7 -8 -8 -8 -9 -8 -7 -7 -7 -7 -7 -7 -7 -7 -7 -7 -7 -7 -7 -7 -8 -8 -8 -9 -9 -9 -8 -8 -8 -8 -8 -8 -8 -7 -7 -7 -7 -7 -7
-7 -7 -6 -7 -8 -7 -8 -8 -8 -8 -7 -7 -7 -8 -8 -8 -7 -7 -7 -7 -7 -6 -7 -7 -7 -7 -7 -7 -7 -8 -8 -8 -8 -8 -8 -8 -8 -8 -8 -8 -7 -8 -8 -8 -8 -8 -7 -7 -7
-6 -8 -7 -7 -7 -6 -6 -8 -8 -8 -8 -8 -8 -8 -7 -8 -7 -7 -7 -7 -7 -7 -7 -7 -7 -7 -7 -8 -9 -8 -8 -8 -8 -8 -8 -8 -8 -8 -8 -8 -8 -8 -8 -8 -8 -8 -7 -7 -7
-6 -7 -8 -7 -7 -6 -8 -8 -8 -8 -8 -8 -8 -8 -7 -8 -7 -7 -7 -7 -7 -7 -7 -7 -7 -7 -7 -8 -8 -8 -8 -8 -7 -8 -8 -7 -8 -8 -9 -8 -8 -8 -8 -8 -8 -8 -7 -8 -7
-6 -6 -6 -6 -6 -6 -7 -7 -8 -7 -9 -8 -8 -8 -8 -8 -7 -8 -8 -8 -7 -7 -7 -7 -7 -7 -8 -8 -8 -8 -8 -7 -7 -7 -7 -7 -8 -8 -8 -8 -8 -8 -8 -8 -8 -8 -7 -7 -7
-6 -6 -6 -6 -6 -6 -8 -8 -6 -8 -8 -8 -8 -8 -8 -8 -8 -8 -8 -8 -8 -7 -8 -8 -8 -7 -8 -8 -8 -8 -8 -7 -8 -9 -8 -8 -8 -8 -8 -8 -8 -8 -8 -8 -8 -8 -8 -8 -7
-6 -6 -6 -6 -6 -8 -7 -7 -7 -8 -7 -8 -8 -8 -9 -9 -8 -8 -8 -8 -8 -8 -8 -8 -8 -8 -8 -8 -8 -8 -8 -8 -8 -9 -8 -8 -8 -8 -8 -8 -8 -8 -8 -8 -8 -8 -9 -8 -7
-6 -6 -6 -7 -8 -8 -7 -8 -7 -7 -8 -7 -8 -8 -9 -8 -8 -8 -8 -8 -8 -7 -7 -8 -8 -8 -8 -8 -8 -8 -8 -8 -8 -8 -8 -8 -8 -8 -8 -8 -8 -8 -8 -9 -8 -9 -8 -9 -8
-6 -6 -8 -8 -6 -8 -7 -8 -8 -8 -8 -7 -7 -7 -8 -8 -8 -8 -8 -8 -8 -8 -8 -8 -8 -9 -8 -8 -8 -8 -8 -8 -8 -8 -9 -8 -8 -8 -8 -8 -8 -8 -8 -8 -9 -8 -8 -9 -8
-7 -7 -8 -8 -8 -8 -8 -8 -8 -8 -9 -9 -8 -9 -9 -8 -7 -8 -8 -8 -9 -8 -8 -8 -8 -8 -8 -8 -8 -9 -9 -9 -9 -8 -8 -9 -8 -8 -8 -8 -8 -8 -8 -8 -8 -8 -8 -8 -8
-6 -6 -8 -8 -8 -7 -7 -7 -8 -9 -8 -8 -8 -7 -8 -8 -7 -7 -9 -8 -8 -9 -8 -8 -8 -8 -8 -9 -9 -9 -9 -9 -9 -9 -8 -8 -9 -8 -8 -8 -8 -8 -8 -8 -8 -8 -8 -8 -8
-6 -6 -6 -7 -8 -7 -7 -7 -8 -8 -8 -8 -8 -9 -9 -6 -9 -9 -8 -9 -8 -9 -8 -8 -8 -8 -9 -9 -9 -8 -9 -9 -9 -8 -8 -8 -9 -8 -8 -8 -8 -8 -8 -8 -8 -8 -8 -8 -7
-7 -7 -7 -7 -7 -8 -7 -7 -8 -9 -8 -8 -8 -9 -9 -8 -9 -9 -6 -8 -9 -9 -9 -9 -9 -9 -9 -9 -8 -9 -9 -9 -8 -8 -7 -7 -8 -8 -8 -8 -8 -8 -8 -8 -7 -7 -7 -8 -8
-7 -8 -7 -7 -7 -8 -8 -8 -8 -8 -9 -8 -8 -9 -9 -9 -9 -9 -9 -9 -9 -9 -9 -9 -9 -9 -9 -9 -9 -9 -9 -8 -8 -7 -7 -7 -7 -8 -8 -8 -8 -8 -8 -8 -8 -7 -7 -8 -8
-7 -9 -8 -7 -7 -7 -7 -8 -8 -8 -8 -7 -8 -7 -9 -8 -9 -8 -9 -9 -8 -9 -9 -9 -9 -9 -9 -9 -9 -9 -9 -9 -9 -8 -8 -8 -8 -8 -8 -8 -8 -8 -8 -8 -8 -8 -8 -8 -8
-7 -8 -7 -7 -7 -7 -8 -8 -8 -8 -9 -9 -8 -9 -9 -9 -8 -9 -9 -8 -9 -9 -9 -9 -9 -9 -9 -9 -9 -9 -9 -9 -9 -8 -8 -8 -8 -8 -8 -8 -8 -8 -8 -8 -8 -8 -8 -8 -7
-7 -7 -8 -7 -8 -8 -8 -8 -9 -9 -8 -7 -9 -9 -9 -8 -9 -9 -9 -9 -9 -9 -9 -9 -9 -9 -9 -10 -9 -9 -9 -8 -8 -8 -8 -8 -8 -8 -8 -8 -8 -8 -8 -8 -8 -8 -8 -8 -7
-7 -7 -8 -8 -8 -8 -9 -8 -9 -9 -8 -8 -9 -8 -8 -8 -9 -9 -9 -9 -9 -9 -9 -9 -9 -9 -9 -9 -9 -9 -9 -8 -8 -8 -8 -8 -8 -8 -8 -8 -8 -8 -8 -8 -8 -8 -8 -8 -8
-8 -8 -8 -8 -8 -8 -8 -8 -7 -9 -9 -8 -8 -10 -10 -9 -9 -9 -9 -8 -8 -9 -9 -9 -9 -9 -9 -9 -9 -9 -9 -8 -8 -8 -8 -8 -8 -8 -8 -8 -8 -8 -8 -8 -7 -8 -8 -8 -8
-7 -9 -8 -8 -9 -8 -8 -8 -8 -8 -9 -8 -9 -10 -10 -9 -9 -8 -9 -9 -8 -9 -9 -8 -8 -9 -9 -9 -9 -9 -9 -9 -8 -8 -8 -8 -8 -8 -8 -8 -8 -8 -8 -8 -8 -8 -8 -8 -8
-9 -8 -9 -9 -9 -8 -8 -8 -8 -9 -9 -9 -10 -10 -10 -9 -9 -9 -9 -8 -8 -9 -8 -8 -9 -9 -9 -9 -9 -9 -8 -9 -8 -8 -8 -8 -8 -8 -8 -8 -8 -8 -8 -8 -8 -7 -8 -8 -8
-9 -9 -9 -9 -9 -8 -8 -8 -9 -9 -9 -9 -10 -10 -10 -10 -10 -9 -9 -9 -8 -9 -9 -9 -8 -9 -9 -9 -9 -9 -9 -8 -8 -9 -9 -8 -8 -8 -8 -8 -8 -8 -8 -8 -8 -8 -8 -8 -8
Height
5900 5900 5897 5898 5899 5895 5902 5904 5900 5897 5896 5894 5892 5890 5891 5891 5890 5890 5886 5886 5888 5887 5887 5887 5888 5888 5889 5890 5891 5892 5893 5893 5893 5894 5896 5897 5898 5899 5900 5900 5901 5902 5902 5903 5904 5906 5908 5909 5912
5901 5899 5897 5892 5900 5896 5902 5902 5898 5897 5896 5893 5893 5892 5891 5891 5890 5889 5888 5886 5885 5886 5886 5886 5886 5886 5886 5887 5888 5890 5891 5890 5892 5892 5893 5895 5898 5898 5900 5900 5902 5902 5901 5902 5904 5906 5908 5909 5911
5901 5900 5899 5900 5899 5900 5901 5900 5898 5898 5898 5893 5893 5892 5887 5889 5889 5889 5887 5886 5884 5885 5885 5885 5884 5884 5885 5885 5887 5888 5889 5890 5890 5891 5892 5894 5897 5898 5899 5900 5901 5902 5901 5902 5903 5905 5907 5909 5911
5902 5902 5901 5897 5904 5905 5903 5901 5898 5899 5897 5893 5891 5881 5884 5886 5888 5887 5886 5885 5884 5884 5884 5884 5884 5883 5884 5884 5885 5886 5888 5888 5888 5890 5890 5892 5895 5897 5898 5900 5900 5901 5901 5902 5903 5904 5907 5909 5911
5902 5903 5899 5896 5895 5911 5906 5903 5903 5901 5899 5890 5884 5852 5879 5882 5887 5887 5886 5884 5883 5882 5883 5883 5882 5882 5883 5883 5884 5885 5886 5886 5887 5888 5889 5890 5893 5895 5898 5900 5900 5900 5901 5902 5902 5905 5906 5908 5910
5903 5902 5903 5903 5903 5907 5907 5906 5906 5904 5903 5890 5891 5884 5883 5880 5887 5887 5885 5883 5884 5882 5882 5883 5882 5882 5882 5883 5883 5884 5884 5885 5886 5887 5888 5890 5892 5894 5898 5899 5901 5902 5902 5903 5902 5904 5906 5908 5910
5903 5903 5903 5903 5900 5898 5908 5906 5906 5902 5905 5901 5889 5890 5888 5887 5886 5885 5884 5883 5882 5882 5881 5882 5882 5881 5881 5882 5883 5883 5884 5885 5886 5886 5888 5890 5892 5894 5896 5898 5898 5902 5903 5904 5902 5903 5906 5908 5910
5905 5902 5898 5897 5903 5909 5907 5907 5909 5903 5903 5900 5893 5885 5891 5888 5887 5885 5884 5881 5880 5880 5880 5880 5881 5880 5880 5880 5881 5881 5883 5884 5884 5885 5886 5888 5889 5893 5894 5895 5897 5901 5901 5904 5904 5904 5904 5907 5909
5905 5901 5896 5899 5902 5912 5910 5908 5905 5903 5897 5890 5893 5888 5890 5890 5890 5887 5883 5882 5880 5880 5879 5878 5879 5878 5879 5879 5879 5880 5882 5882 5883 5884 5884 5887 5890 5891 5892 5892 5894 5896 5900 5902 5904 5904 5904 5906 5909
5904 5903 5903 5904 5908 5913 5913 5910 5909 5901 5897 5901 5899 5891 5890 5891 5889 5886 5883 5881 5878 5878 5877 5876 5876 5876 5877 5879 5878 5880 5881 5882 5882 5882 5882 5884 5885 5885 5884 5888 5891 5893 5896 5900 5902 5903 5904 5905 5908
5905 5900 5906 5908 5912 5912 5911 5911 5911 5900 5892 5893 5897 5895 5891 5889 5889 5887 5884 5880 5878 5875 5875 5874 5874 5874 5875 5872 5872 5874 5876 5880 5881 5879 5879 5881 5881 5880 5877 5883 5887 5890 5892 5897 5900 5902 5904 5904 5906
5908 5907 5905 5910 5910 5910 5909 5907 5907 5908 5896 5893 5895 5895 5891 5889 5888 5884 5880 5879 5878 5874 5873 5871 5871 5872 5870 5867 5866 5868 5873 5873 5877 5877 5877 5879 5879 5879 5879 5882 5885 5885 5889 5892 5897 5901 5902 5903 5904
5908 5909 5909 5910 5909 5908 5907 5905 5905 5899 5896 5893 5895 5893 5889 5891 5888 5882 5878 5877 5875 5873 5872 5871 5870 5869 5866 5865 5863 5863 5867 5870 5873 5872 5873 5874 5875 5877 5879 5878 5877 5879 5884 5887 5893 5898 5901 5901 5902
5906 5907 5908 5907 5908 5906 5906 5902 5903 5902 5897 5889 5889 5890 5890 5888 5884 5881 5879 5877 5875 5872 5869 5867 5866 5865 5865 5861 5862 5863 5864 5864 5861 5858 5866 5868 5870 5872 5872 5872 5872 5873 5875 5882 5887 5893 5898 5898 5900
5905 5904 5905 5906 5906 5906 5905 5901 5901 5898 5895 5891 5889 5887 5886 5886 5885 5882 5879 5877 5874 5870 5868 5865 5863 5861 5861 5861 5860 5860 5862 5862 5855 5856 5862 5863 5864 5866 5866 5866 5868 5869 5871 5876 5883 5888 5893 5896 5898
5902 5901 5901 5902 5905 5907 5903 5899 5894 5893 5888 5888 5887 5886 5886 5884 5883 5881 5878 5875 5872 5870 5867 5864 5862 5859 5858 5857 5857 5857 5856 5856 5857 5858 5858 5857 5858 5860 5862 5862 5863 5865 5866 5871 5878 5883 5888 5893 5896
5901 5899 5898 5896 5896 5903 5901 5896 5889 5883 5881 5881 5883 5881 5881 5879 5880 5879 5877 5874 5872 5869 5866 5862 5859 5857 5855 5853 5853 5852 5852 5851 5851 5851 5851 5854 5853 5855 5857 5859 5859 5861 5864 5867 5873 5878 5883 5887 5891
5899 5899 5890 5886 5879 5901 5900 5896 5892 5886 5890 5887 5881 5881 5881 5880 5876 5877 5874 5873 5871 5868 5865 5861 5858 5855 5854 5853 5850 5849 5847 5845 5843 5842 5843 5846 5848 5849 5852 5854 5855 5857 5859 5863 5869 5873 5878 5883 5886
5897 5898 5901 5888 5898 5899 5897 5894 5895 5893 5884 5886 5880 5868 5871 5876 5870 5873 5874 5869 5868 5867 5863 5860 5858 5855 5851 5848 5846 5844 5842 5838 5836 5835 5833 5836 5838 5841 5844 5848 5850 5851 5854 5857 5864 5869 5874 5879 5881
5895 5895 5896 5897 5897 5894 5891 5892 5893 5890 5887 5879 5881 5878 5875 5872 5872 5870 5869 5868 5865 5865 5862 5859 5856 5852 5848 5845 5843 5839 5835 5829 5825 5823 5823 5826 5830 5831 5836 5841 5844 5846 5850 5853 5860 5864 5868 5873 5876
5892 5892 5892 5892 5891 5889 5887 5887 5888 5883 5884 5879 5878 5878 5872 5870 5869 5868 5865 5866 5862 5861 5859 5858 5855 5852 5847 5843 5839 5832 5827 5822 5818 5816 5816 5818 5821 5824 5828 5833 5837 5841 5845 5849 5853 5859 5864 5867 5871
5888 5889 5889 5889 5889 5889 5890 5889 5890 5883 5881 5873 5852 5874 5873 5871 5871 5868 5866 5862 5863 5858 5856 5856 5852 5849 5844 5839 5833 5826 5819 5815 5814 5812 5811 5812 5815 5819 5823 5826 5829 5835 5840 5844 5847 5852 5857 5862 5866
5886 5886 5886 5886 5885 5883 5885 5886 5887 5878 5874 5873 5867 5845 5869 5868 5866 5868 5865 5863 5860 5858 5856 5851 5848 5846 5841 5837 5832 5824 5816 5812 5809 5809 5807 5808 5811 5815 5817 5820 5824 5829 5836 5839 5843 5846 5851 5858 5862
5881 5882 5881 5881 5881 5879 5880 5882 5882 5876 5873 5875 5872 5870 5866 5864 5866 5865 5862 5861 5859 5856 5854 5849 5845 5844 5840 5836 5831 5823 5815 5811 5808 5807 5806 5807 5809 5811 5813 5816 5820 5825 5831 5835 5839 5841 5847 5853 5858
5877 5878 5877 5876 5876 5876 5879 5880 5880 5874 5871 5874 5867 5866 5863 5861 5865 5862 5860 5857 5854 5854 5852 5848 5844 5842 5838 5834 5828 5822 5814 5810 5809 5807 5805 5805 5807 5808 5810 5813 5817 5821 5826 5830 5835 5839 5845 5849 5853
5871 5873 5874 5875 5878 5872 5871 5873 5867 5871 5872 5871 5867 5862 5859 5860 5861 5859 5857 5854 5852 5852 5849 5845 5841 5839 5836 5833 5828 5821 5813 5810 5809 5806 5805 5805 5806 5807 5808 5811 5814 5817 5821 5826 5831 5835 5840 5845 5850
5868 5867 5870 5869 5871 5873 5870 5870 5863 5864 5867 5869 5868 5863 5859 5857 5858 5856 5855 5853 5852 5850 5847 5844 5839 5836 5835 5832 5828 5823 5815 5811 5809 5806 5806 5805 5805 5806 5807 5810 5812 5815 5819 5824 5827 5831 5836 5841 5846
5863 5865 5865 5864 5865 5866 5871 5867 5858 5856 5863 5865 5865 5863 5860 5857 5853 5857 5855 5853 5850 5847 5845 5839 5835 5833 5833 5832 5827 5824 5820 5812 5810 5808 5807 5807 5807 5806 5807 5808 5810 5813 5817 5820 5824 5828 5833 5838 5842
5858 5858 5860 5862 5865 5867 5869 5862 5859 5855 5855 5861 5861 5862 5857 5858 5856 5854 5851 5849 5847 5845 5841 5837 5831 5831 5831 5830 5827 5825 5822 5817 5812 5809 5809 5809 5809 5809 5809 5809 5811 5814 5816 5819 5822 5824 5829 5833 5836
5854 5855 5855 5856 5861 5862 5863 5854 5850 5850 5844 5849 5854 5858 5856 5856 5854 5851 5850 5849 5846 5843 5841 5836 5831 5829 5831 5830 5827 5825 5822 5819 5816 5814 5811 5810 5810 5810 5811 5810 5812 5814 5816 5819 5819 5821 5824 5828 5832
Wind_Speed
14 11 7 13 20 22 13 14 5 14 16 14 10 7 7 8 9 8 10 11 6 8 8 8 9 8 9 12 14 13 12 11 13 16 13 10 8 6 9 11 11 13 14 13 13 13 13 12 11
12 7 2 11 26 20 9 0 9 12 14 13 6 8 11 9 10 11 11 10 10 7 9 10 10 10 11 11 13 13 12 12 8 8 12 12 10 7 9 9 9 13 15 13 14 14 14 12 11
8 4 12 16 15 17 13 11 16 15 17 13 16 18 12 12 10 8 8 6 9 8 6 9 11 11 11 10 11 12 12 12 11 10 11 14 13 10 9 9 10 12 15 13 14 15 16 14 13
5 7 10 14 18 22 3 3 20 16 17 23 21 8 10 15 13 6 6 7 5 8 7 8 9 9 9 9 9 10 11 11 13 12 13 16 17 14 11 10 10 12 15 12 15 16 17 15 14
6 5 19 7 27 10 13 8 13 15 12 19 18 21 13 18 12 7 5 4 6 7 8 8 7 7 7 7 8 9 12 12 13 13 13 16 18 18 14 12 10 11 15 14 14 15 17 16 14
4 4 14 3 20 7 6 8 13 15 13 23 22 26 16 20 12 5 4 5 0 6 10 11 9 7 8 7 7 9 11 12 11 11 12 14 18 19 18 13 10 10 14 15 15 14 14 15 14
5 3 13 13 11 9 10 4 6 16 13 5 23 28 18 17 15 9 6 4 4 4 8 13 13 13 12 10 10 11 11 12 11 11 11 11 12 15 16 12 10 12 12 15 15 15 14 14 13
6 13 14 6 8 20 8 12 10 14 14 5 17 23 19 20 15 14 10 11 9 6 6 11 14 16 15 14 13 13 10 11 12 12 13 15 12 17 17 12 13 14 13 15 16 15 16 14 14
1 12 8 1 18 11 15 19 23 20 24 4 5 13 20 21 17 13 15 13 11 11 7 9 13 14 15 15 15 13 10 8 9 9 12 15 13 15 18 21 15 12 15 16 17 18 18 16 15
4 2 11 12 4 10 7 17 17 14 25 20 17 15 16 22 22 17 16 16 14 12 9 10 9 12 14 15 15 12 11 12 10 10 11 14 13 17 24 29 27 17 16 18 19 18 18 17 16
11 12 11 10 9 10 11 12 17 20 32 25 19 16 22 22 22 17 17 17 15 14 13 9 11 11 12 14 16 13 10 12 12 11 12 9 17 15 16 26 34 25 19 20 22 22 20 17 17
9 9 4 3 7 9 12 10 10 11 25 26 19 17 21 22 23 21 21 17 16 16 14 12 11 12 13 16 18 11 9 9 14 16 16 14 14 12 9 20 24 31 24 23 23 22 23 20 19
2 2 1 3 9 10 13 14 9 14 19 22 13 17 21 20 23 23 22 20 19 18 16 13 11 12 14 15 15 12 11 10 16 18 19 19 18 17 13 18 22 35 28 28 27 26 24 22 19
3 3 4 4 6 9 11 16 24 17 7 19 19 20 19 22 25 22 19 16 19 19 17 14 14 14 11 14 13 13 12 15 24 16 19 23 21 21 18 19 14 32 33 32 30 31 28 22 21
7 8 8 6 6 8 15 19 16 18 11 9 21 17 18 23 22 21 15 15 17 19 19 16 13 10 9 11 13 12 14 16 18 15 21 21 20 19 19 18 19 21 32 32 35 32 31 25 24
11 13 14 4 6 16 13 16 20 21 15 12 11 11 14 21 19 19 13 14 17 17 18 16 14 14 14 14 13 13 13 14 17 20 20 22 21 19 18 19 18 20 28 34 36 31 32 27 26
11 14 15 27 6 9 15 15 26 14 21 20 18 13 13 12 16 17 16 15 17 18 18 16 15 14 15 18 19 20 19 19 21 22 25 25 26 24 22 20 22 20 24 34 36 33 37 35 31
5 14 31 27 12 16 10 11 22 30 21 23 24 24 9 14 9 14 20 18 17 16 15 16 16 15 16 18 21 20 22 23 25 26 25 28 28 28 26 23 23 22 21 37 40 38 32 37 37
10 15 13 21 10 22 16 16 14 19 22 14 19 37 14 12 16 14 19 23 18 15 14 16 16 17 19 22 23 24 25 29 28 28 30 29 32 31 31 26 25 23 21 26 37 39 36 33 30
15 17 15 16 18 21 17 17 9 21 24 4 11 27 26 13 17 20 17 21 26 16 18 21 19 19 22 24 25 28 33 31 21 22 24 29 29 31 31 31 28 26 24 28 36 33 38 40 36
17 17 16 16 14 22 23 15 16 26 24 23 15 17 20 20 23 19 9 27 23 20 19 20 17 17 23 27 30 35 38 32 21 20 20 24 23 25 24 28 31 28 26 28 32 32 34 39 37
16 15 17 19 17 16 15 16 14 28 23 29 18 12 17 19 19 23 26 29 28 28 30 16 16 17 22 30 36 38 41 25 19 18 18 20 24 25 24 25 32 31 27 27 29 30 35 36 34
15 11 18 19 20 23 19 18 18 21 22 21 19 7 27 25 25 19 24 27 32 28 18 15 15 19 25 27 34 36 35 21 14 13 14 15 21 21 22 22 29 30 27 27 28 29 36 34 26
17 19 22 21 22 24 19 14 17 33 12 28 32 15 34 23 20 21 26 25 27 24 17 11 17 20 24 28 31 33 29 15 10 9 8 11 16 17 17 19 24 28 27 28 28 30 37 33 30
18 18 23 18 12 12 10 17 7 16 31 31 26 30 23 21 16 18 19 18 19 17 18 15 19 24 27 22 28 31 27 11 8 8 7 8 9 11 12 14 19 24 27 28 28 29 30 30 29
23 18 17 13 10 20 22 17 19 26 21 27 31 24 16 15 12 15 14 16 16 14 20 18 20 24 22 22 26 31 21 9 10 8 4 4 6 9 12 13 17 22 25 27 28 30 33 33 30
17 22 12 20 24 19 24 15 29 15 22 24 24 13 15 19 13 16 14 16 19 19 21 22 20 19 16 17 23 28 23 8 7 3 3 4 6 6 9 12 14 18 22 24 28 30 33 37 34
16 17 16 17 19 20 14 15 26 29 24 22 18 8 14 15 19 17 9 15 17 21 22 25 20 16 11 12 19 24 30 17 4 2 1 1 0 3 6 9 11 13 18 22 25 26 31 33 35
19 19 19 15 13 11 13 24 27 33 29 22 8 11 18 13 20 20 18 20 19 23 22 27 18 9 7 11 16 19 22 28 20 6 0 3 3 2 4 5 6 11 16 19 22 22 29 30 25
18 18 19 20 16 17 20 32 30 21 24 14 6 14 20 18 21 22 22 21 22 21 21 22 20 1 6 14 17 15 16 20 22 22 7 2 5 3 6 4 9 9 14 17 19 18 21 25 27
Wind_Direction
98 88 108 108 99 107 122 75 351 28 23 21 31 15 358 333 326 329 311 280 275 267 251 240 226 226 234 236 242 239 233 239 218 231 232 219 208 207 202 194 189 184 174 169 172 170 169 164 165
94 94 103 97 107 80 106 208 325 16 28 11 23 45 27 2 319 305 300 286 260 262 241 234 230 227 230 234 235 239 242 243 246 220 221 215 208 193 199 194 200 188 175 168 171 179 174 170 169
96 130 27 80 46 84 68 316 8 36 9 358 3 348 16 358 339 298 314 297 258 251 237 232 226 231 241 239 244 243 240 240 244 245 228 212 205 203 207 195 191 192 174 164 168 180 176 180 171
128 152 83 62 46 72 7 339 342 17 352 2 355 232 359 14 354 331 335 322 280 245 226 227 232 234 246 254 253 250 247 241 240 240 237 223 211 208 208 211 191 194 183 165 165 170 180 183 181
170 176 287 270 110 80 298 320 357 36 4 337 344 106 25 45 12 348 334 320 278 262 238 223 221 232 241 247 249 248 246 242 243 242 245 224 219 208 218 218 210 197 192 174 168 174 179 184 184
166 343 41 210 95 149 1 10 342 340 341 334 338 341 344 30 17 3 12 8 319 248 248 240 228 233 238 239 250 259 262 255 255 252 250 230 221 211 219 214 224 213 203 185 173 177 182 188 188
172 55 27 341 91 77 347 6 287 323 339 289 328 333 21 12 4 7 7 353 38 247 243 242 235 238 239 249 265 261 255 259 261 260 250 229 226 225 219 220 219 227 211 203 184 181 185 192 193
123 132 256 223 29 2 26 339 328 333 309 321 337 334 4 2 356 350 351 351 355 304 251 245 242 239 245 254 259 262 266 255 253 247 241 223 218 228 217 220 227 231 217 214 201 187 189 196 198
118 192 189 337 62 320 356 317 343 332 318 203 325 344 356 354 344 343 351 343 335 335 302 273 257 253 254 258 258 262 268 266 261 263 247 244 254 259 225 235 220 237 221 213 216 204 192 195 202
78 225 58 56 348 260 305 337 329 313 307 320 5 332 6 348 347 351 349 353 340 340 326 295 278 269 265 262 267 269 282 275 278 263 267 220 299 292 255 231 224 226 222 223 215 216 205 198 207
62 12 40 18 299 298 307 16 341 319 307 326 350 353 350 350 344 348 354 356 348 351 341 305 281 285 283 263 260 259 259 264 269 266 267 228 278 303 236 216 225 233 226 224 224 216 212 205 209
75 88 350 307 311 329 348 290 315 316 300 321 351 336 349 349 344 352 0 359 358 353 353 341 305 278 278 271 263 247 269 260 259 255 263 267 270 285 237 224 237 226 235 223 224 226 221 211 211
94 68 2 282 299 336 335 345 321 261 297 315 335 337 350 339 343 354 353 356 353 342 340 346 336 313 289 281 287 287 270 276 260 261 269 272 275 276 253 242 245 229 227 224 218 225 227 219 212
225 254 279 303 292 344 311 316 347 292 288 321 322 326 338 338 344 349 346 355 355 350 350 345 341 323 298 296 293 283 282 263 256 231 265 272 273 271 263 265 275 224 224 217 217 221 222 219 211
269 279 276 298 312 348 290 313 318 331 324 314 307 322 336 340 344 337 341 345 350 355 351 350 353 352 336 325 309 291 270 269 282 280 270 268 271 267 264 260 253 235 220 214 214 214 223 215 220
274 284 286 247 270 283 312 285 323 323 340 335 297 317 321 327 337 337 326 340 342 342 348 355 353 353 346 337 328 318 305 289 276 272 262 267 268 268 261 258 261 257 233 212 216 214 225 216 225
301 316 307 283 168 244 308 308 314 291 339 301 311 309 315 321 342 335 325 318 327 334 338 341 341 346 341 328 321 310 300 290 282 272 265 257 263 263 260 254 254 250 238 217 215 214 226 211 220
330 290 299 318 117 307 308 330 305 327 309 311 311 308 345 321 342 332 319 319 316 315 324 327 331 330 328 323 318 311 308 301 290 277 264 258 255 257 255 254 252 252 246 223 216 215 223 216 217
272 255 268 324 295 292 294 312 293 295 276 317 299 283 342 328 337 341 330 315 310 308 310 309 317 334 338 335 334 325 314 306 292 274 266 257 253 256 251 248 249 252 248 220 213 219 222 223 219
274 271 271 264 278 295 301 310 312 274 310 117 298 303 310 330 340 323 318 307 304 301 309 311 317 335 339 338 334 325 318 316 307 292 268 253 249 251 240 240 244 242 241 233 220 227 230 226 229
263 265 269 280 282 285 307 317 330 293 318 312 320 290 313 324 326 323 336 302 296 294 291 306 316 330 338 336 337 333 328 317 296 289 269 254 234 231 234 238 235 237 237 231 229 230 226 229 224
256 262 263 267 279 270 276 287 299 294 296 292 183 292 318 302 300 302 294 297 317 293 293 311 318 320 329 334 340 336 330 316 297 286 270 257 237 234 242 246 231 228 233 234 232 233 227 220 224
259 247 251 276 275 275 268 272 287 270 270 309 322 239 309 302 295 308 297 301 316 311 316 310 328 329 334 331 337 338 331 317 308 287 272 242 236 241 249 241 224 223 227 234 232 234 215 221 224
257 260 279 283 280 278 286 257 258 273 317 283 296 269 294 287 310 311 310 310 319 308 312 328 332 336 338 336 338 342 332 323 321 309 277 243 240 246 244 234 223 225 226 234 230 223 214 222 223
266 268 279 288 280 316 280 261 224 284 275 288 290 295 281 291 323 315 326 318 313 314 303 317 323 333 335 339 348 347 333 323 325 315 295 257 238 235 233 224 225 227 226 226 224 220 214 218 224
275 272 262 262 254 282 280 220 193 242 285 306 287 292 304 308 322 324 339 352 333 318 323 315 324 327 336 342 355 351 340 324 318 296 268 247 258 247 235 228 223 225 227 223 220 221 220 225 223
247 267 273 242 219 273 301 313 292 229 275 291 300 297 314 317 333 335 333 330 332 330 326 334 325 318 339 345 1 359 357 336 338 342 240 256 258 242 225 227 224 224 224 222 222 220 222 222 226
246 251 270 254 244 242 253 257 274 292 269 295 289 291 295 327 334 339 342 327 326 343 336 337 319 318 343 356 7 7 359 8 334 328 241 103 10 239 235 243 239 224 217 218 216 224 223 226 232
261 231 232 242 236 234 260 255 248 245 243 247 239 264 281 317 325 328 336 333 336 337 342 339 327 317 5 8 13 6 8 13 13 19 278 74 70 138 202 203 231 221 218 219 226 227 220 224 224
214 243 235 235 214 231 258 293 269 280 266 233 207 266 282 305 312 316 323 325 330 330 341 346 359 351 20 10 8 8 8 12 13 16 3 279 318 268 237 210 208 216 220 225 224 222 218 225 233